[[{"header":{"parameterUnit":"m.s-1","parameterCategory":1,"la1":30.2991,"la2":30.254,"lo1":-89.0895,"lo2":-89.0444,"dy":0.0017,"dx":0.0017,"nx":28,"ny":28,"refTime":"2023-09-22T09:00:00:Z","depth":0,"parameterNumber":2,"parameterNumberName":"U-component_of_WINDS"},"data":[0,0,0,0,0,0,0,0,0,0,0,0,0,0,0,0,0,0,0,0,0,0,0,0,0,0,0,0,0,0,0,0,0,0,0,0,0,0,0,0,0,0,0,0,0,0,0,0,0,0,0,0,0,0,0,0,0,0,-4.1023,-4.1024,0,-4.1081,-4.1082,-4.1083,-4.0999,-4.0996,-4.0993,-4.099,-4.1053,-4.1057,-4.1061,0,0,0,0,0,0,0,0,0,0,0,0,0,-4.0843,-4.0847,-4.1023,-4.1024,-4.1025,-4.1081,-4.1082,-4.1083,-4.0999,-4.0996,-4.0992,-4.0989,-4.1051,-4.1056,-4.1062,0,0,0,0,0,0,0,0,0,0,0,0,0,-4.0913,-4.0848,-4.1023,-4.099,-4.0987,-4.1081,-4.1082,-4.1083,-4.1,-4.0996,-4.0991,-4.0987,-4.1049,-4.1056,-4.1062,-4.1193,0,0,-4.1083,-4.1086,0,0,0,0,0,0,0,0,-4.091,-4.092,-4.0994,-4.0992,-4.099,-4.1028,-4.1041,-4.112,-4.1001,-4.0995,-4.099,-4.0985,-4.1048,-4.1055,-4.1076,-4.1195,-4.1198,-4.1083,-4.1087,-4.109,-4.1092,0,0,0,0,0,0,0,-4.0905,-4.0917,-4.1046,-4.0995,-4.0993,-4.0973,-4.0978,-4.1056,-4.1046,-4.0996,-4.099,-4.0997,-4.1046,-4.1069,-4.1076,-4.1199,-4.1083,-4.1089,-4.1093,-4.1096,-4.1431,-4.1436,0,0,0,0,0,0,-4.0903,-4.0914,-4.1044,-4.1048,-4.0938,-4.098,-4.0985,-4.102,-4.1045,-4.1044,-4.1001,-4.0993,-4.106,-4.1069,-4.1078,-4.1234,-4.109,-4.1096,-4.11,-4.1426,-4.1432,-4.1438,0,0,0,0,0,0,-4.09,-4.0916,-4.1042,-4.0979,-4.0994,-4.0988,-4.1028,-4.1024,-4.1047,-4.1049,-4.1047,-4.1026,-4.1057,-4.1069,-4.1165,-4.1235,-4.1099,-4.1105,-4.142,-4.1428,-4.1435,-4.1545,0,0,0,0,0,0,-4.0895,-4.0915,-4.0964,-4.0981,-4.0997,-4.1127,-4.1032,-4.1028,-4.1058,-4.1048,-4.1072,-4.1072,-4.1054,-4.1156,-4.1172,-4.1242,-4.1111,-4.1414,-4.1424,-4.1433,-4.1536,-4.1556,-4.1573,0,0,0,0,0,-4.0889,-4.0992,-4.0966,-4.0983,-4.1058,-4.1131,-4.1141,-4.1117,-4.1064,-4.1113,-4.1115,-4.1071,-4.1224,-4.1166,-4.1184,-4.1257,-4.141,-4.1421,-4.1432,-4.1527,-4.1552,-4.1572,0,0,0,0,0,0,-4.0984,-4.0994,-4.0965,-4.1077,-4.1104,-4.1117,-4.1178,-4.1144,-4.1187,-4.1176,-4.1146,-4.1152,-4.1256,-4.1265,-4.12,-4.1385,-4.1308,-4.1323,-4.1375,-4.1398,-4.1417,-4.1413,-4.1116,0,0,0,0,0,-4.1018,-4.1076,-4.1082,-4.118,-4.1195,-4.1185,-4.1216,-4.1195,-4.1222,-4.1233,-4.1242,-4.1271,-4.1325,-4.1362,-4.1412,-4.1536,-4.1542,-4.1595,-4.1614,-4.1629,-4.1643,-4.1712,-4.1736,-4.1474,-4.1474,-4.1474,0,0,-4.1089,-4.1101,-4.114,-4.12,-4.1218,-4.128,-4.1195,-4.1263,-4.131,-4.1244,-4.1336,-4.1343,-4.1373,-4.1485,-4.1534,-4.1496,-4.1717,-4.1643,-4.1655,-4.1661,-4.1726,-4.175,-4.1773,-4.1481,-4.148,-4.1479,0,0,-4.125,-4.1264,-4.1349,-4.1369,-4.1398,-4.139,-4.1411,-4.1429,-4.1432,-4.1523,-4.1476,-4.1531,-4.1625,-4.1649,-4.1674,-4.1846,-4.1808,-4.1863,-4.1961,-4.2028,-4.2049,-4.2067,-4.2131,-4.2154,-4.1877,-4.1877,-4.1877,0,-4.1334,-4.1425,-4.1397,-4.1469,-4.1498,-4.1441,-4.1527,-4.1549,-4.1593,-4.1615,-4.1571,-4.1689,-4.1705,-4.1822,-4.1865,-4.1886,-4.191,-4.1861,-4.2048,-4.2066,-4.2083,-4.2143,-4.2167,-4.1884,-4.1883,-4.1882,-4.1881,0,-4.1529,-4.1592,-4.1657,-4.1701,-4.1737,-4.1816,-4.1802,-4.1841,-4.1819,-4.1816,-4.1911,-4.1929,-4.1983,-4.2009,-4.1987,-4.2124,-4.2099,-4.2053,-4.1975,-4.2115,-4.2171,-4.2194,-4.1893,-4.1891,-4.1889,-4.1887,0,0,-4.1751,-4.1779,-4.1804,-4.1824,-4.1852,-4.1901,-4.1979,-4.2031,-4.2067,-4.2099,-4.2165,-4.2247,-4.2204,-4.2232,-4.2213,-4.2271,-4.2409,-4.2217,-4.2218,-4.2254,-4.2564,-4.26,-4.2627,-4.2384,-4.2388,-4.2391,-4.2562,0,-4.1913,-4.2046,-4.2024,-4.2154,-4.2214,-4.2161,-4.2229,-4.2254,-4.2255,-4.2307,-4.2307,-4.2366,-4.2304,-4.2321,-4.2377,-4.2381,-4.2472,-4.2368,-4.2447,-4.245,-4.2442,-4.2656,-4.2694,-4.2855,-4.2584,-4.2587,-4.259,0,-4.212,-4.2161,-4.2297,-4.2317,-4.2341,-4.2402,-4.2449,-4.2499,-4.2527,-4.2524,-4.2556,-4.2526,-4.2606,-4.2526,-4.2636,-4.2566,-4.2597,-4.2604,-4.261,-4.2618,-4.2529,-4.2672,-4.2905,-4.293,-4.2624,-4.2621,-4.2619,0,-4.2272,-4.236,-4.2453,-4.2471,-4.2497,-4.2542,-4.2555,-4.2579,-4.2612,-4.2654,-4.2675,-4.2726,-4.2754,-4.2794,-4.278,-4.2723,-4.2894,-4.2813,-4.2895,-4.2896,-4.2934,-4.2932,-4.3178,-4.2952,-4.2951,-4.2951,-4.295,0,-4.2456,-4.2542,-4.2521,-4.2579,-4.2674,-4.2648,-4.2743,-4.275,-4.2772,-4.2831,-4.2789,-4.2845,-4.2822,-4.2878,-4.2867,-4.2961,-4.2973,-4.2974,-4.2971,-4.2979,-4.2979,-4.3,-4.2989,-4.2957,-4.2956,-4.2954,-4.2953,0,-4.2641,-4.2631,-4.2729,-4.2746,-4.2752,-4.2822,-4.2836,-4.2891,-4.2888,-4.2964,-4.298,-4.2977,-4.304,-4.3029,-4.31,-4.3093,-4.3211,-4.3193,-4.3201,-4.3198,-4.3281,-4.3274,-4.355,-4.3586,-4.3335,-4.3337,-4.3339,0,-4.276,-4.2825,-4.2849,-4.2885,-4.2901,-4.296,-4.2994,-4.2972,-4.3009,-4.3048,-4.3099,-4.3158,-4.3204,-4.3309,-4.3314,-4.3368,-4.3352,-4.3445,-4.336,-4.3367,-4.3356,-4.3353,-4.336,-4.3462,-4.3465,-4.3467,-4.3469,0,-4.2974,-4.2966,-4.3016,-4.3065,-4.3107,-4.3145,-4.3178,-4.3211,-4.3191,-4.3236,-4.33,-4.3336,-4.3408,-4.3469,-4.352,-4.3535,-4.35,-4.3496,-4.3518,-4.3528,-4.3531,-4.3533,-4.3249,-4.349,-4.3488,-4.3486,-4.3485,-4.3484,-4.3131,-4.3187,-4.3213,-4.3271,-4.3294,-4.3327,-4.3379,-4.3383,-4.3436,-4.3493,-4.3476,-4.355,-4.3579,-4.3644,-4.3664,-4.3723,-4.3689,-4.372,-4.3729,-4.3737,-4.3748,-4.352,-4.3732,-4.3731,-4.3731,-4.373,-4.373,0,-4.3343,-4.3358,-4.3411,-4.346,-4.3506,-4.3468,-4.3504,-4.3546,-4.3611,-4.364,-4.3687,-4.3762,-4.3821,-4.3831,-4.3887,-4.3932,-4.3918,-4.3948,-4.3945,-4.395,-4.3775,-4.3751,-4.3959,-4.3959,-4.3959,-4.3959,-4.3959,-4.3959,-4.346,-4.3553,-4.3548,-4.3654,-4.3667,-4.3738,-4.3763,-4.3794,-4.3817,-4.3903,-4.3951,-4.3957,-4.3979,-4.4037,-4.409,-4.4091,-4.4115,-4.4152,-4.4148,-4.3985,-4.3962,-4.394,-4.3917,-4.4157,-4.4157,-4.4318,-4.432,-4.4321]},{"header":{"parameterUnit":"m.s-1","parameterCategory":1,"la1":30.2991,"la2":30.254,"lo1":-89.0895,"lo2":-89.0444,"dy":0.0017,"dx":0.0017,"nx":28,"ny":28,"refTime":"2023-09-22T09:00:00:Z","depth":0,"parameterNumber":3,"parameterNumberName":"V-component_of_WINDS"},"data":[0,0,0,0,0,0,0,0,0,0,0,0,0,0,0,0,0,0,0,0,0,0,0,0,0,0,0,0,0,0,0,0,0,0,0,0,0,0,0,0,0,0,0,0,0,0,0,0,0,0,0,0,0,0,0,0,0,0,-2.0039,-2.0038,0,-1.9999,-1.9999,-1.9998,-1.9933,-1.9932,-1.9931,-1.993,-1.9891,-1.9891,-1.9891,0,0,0,0,0,0,0,0,0,0,0,0,0,-2.006,-2.006,-2.0039,-2.0038,-2.0038,-1.9999,-1.9999,-1.9998,-1.9934,-1.9932,-1.9931,-1.9929,-1.9891,-1.9891,-1.9891,0,0,0,0,0,0,0,0,0,0,0,0,0,-2.0038,-2.006,-2.0039,-2.0001,-1.9997,-1.9999,-1.9999,-1.9998,-1.9934,-1.9932,-1.993,-1.9929,-1.9891,-1.9891,-1.9891,-1.9927,0,0,-1.9891,-1.9891,0,0,0,0,0,0,0,0,-2.004,-2.0038,-2.0007,-2.0004,-1.9999,-1.9969,-1.9991,-1.9974,-1.9934,-1.9958,-1.993,-1.9928,-1.9918,-1.9916,-1.9913,-1.9925,-1.9924,-1.9891,-1.9891,-1.9891,-1.9891,0,0,0,0,0,0,0,-2.0041,-2.0039,-2.0023,-2.0007,-2.0002,-1.9986,-1.9981,-1.9988,-1.9949,-1.9956,-1.9951,-1.9947,-1.9916,-1.9913,-1.9911,-1.9923,-1.9891,-1.9891,-1.9891,-1.9891,-1.9963,-1.9965,0,0,0,0,0,0,-2.0048,-2.0041,-2.0024,-2.0022,-2.0015,-1.9987,-1.9982,-1.9981,-1.9948,-1.9942,-1.9949,-1.9944,-1.9913,-1.9911,-1.991,-1.995,-1.9891,-1.9891,-1.9891,-1.9962,-1.9964,-1.9966,0,0,0,0,0,0,-2.0049,-2.0047,-2.0026,-2.003,-2.0026,-1.9989,-1.9988,-1.9981,-1.9978,-1.9943,-1.9936,-1.9953,-1.9912,-1.9909,-1.9923,-1.9948,-1.9891,-1.9892,-1.9959,-1.9962,-1.9965,-2.0032,0,0,0,0,0,0,-2.005,-2.0048,-2.0061,-2.0031,-2.0026,-2.004,-1.999,-1.9981,-1.9978,-1.9972,-1.9945,-1.9939,-1.991,-1.9923,-1.9923,-1.9947,-1.9892,-1.9957,-1.9961,-1.9964,-2.0027,-2.0037,-2.0044,0,0,0,0,0,-2.0051,-2.0082,-2.0062,-2.0061,-2.0042,-2.0042,-2.0039,-2.0006,-1.998,-1.9993,-1.9971,-1.9939,-1.9945,-1.9925,-1.9925,-1.9949,-1.9955,-1.996,-1.9964,-2.0023,-2.0035,-2.0044,0,0,0,0,0,0,-2.0117,-2.0077,-2.0055,-2.0077,-2.0063,-2.0031,-2.0047,-2.0019,-2.0012,-2.0007,-1.9965,-1.996,-1.9979,-1.9965,-1.9944,-1.9982,-1.9945,-1.995,-1.9991,-2.0001,-2.001,-2.0013,-1.9892,0,0,0,0,0,-2.0134,-2.0137,-2.0102,-2.0125,-2.0119,-2.0084,-2.0083,-2.0058,-2.0042,-2.0036,-2.0015,-2.0001,-1.9999,-1.9999,-1.9996,-2.0024,-2.0018,-2.0041,-2.0049,-2.0056,-2.0061,-2.0075,-2.0085,-1.998,-1.998,-1.9979,0,0,-2.017,-2.0149,-2.0153,-2.0138,-2.0124,-2.0129,-2.008,-2.0087,-2.0089,-2.0037,-2.0049,-2.0033,-2.0014,-2.0036,-2.0044,-2.0025,-2.0088,-2.0062,-2.0068,-2.0068,-2.008,-2.009,-2.0099,-1.9982,-1.9982,-1.9981,0,0,-2.0238,-2.0222,-2.0239,-2.0226,-2.0205,-2.0182,-2.0186,-2.0157,-2.0145,-2.0155,-2.0116,-2.0119,-2.0117,-2.0106,-2.01,-2.0162,-2.0133,-2.0162,-2.0207,-2.0222,-2.023,-2.0237,-2.026,-2.0268,-2.0166,-2.0166,-2.0167,0,-2.0285,-2.0289,-2.0252,-2.0261,-2.0255,-2.0207,-2.0225,-2.0214,-2.0194,-2.0192,-2.017,-2.0166,-2.0151,-2.0169,-2.0184,-2.018,-2.0184,-2.0165,-2.0232,-2.0238,-2.0245,-2.0266,-2.0274,-2.017,-2.017,-2.0169,-2.0169,0,-2.0349,-2.0352,-2.0369,-2.035,-2.0346,-2.036,-2.0324,-2.0325,-2.03,-2.0279,-2.0291,-2.027,-2.0261,-2.0264,-2.024,-2.0278,-2.0267,-2.0239,-2.0201,-2.0259,-2.0278,-2.0286,-2.0176,-2.0174,-2.0173,-2.0172,0,0,-2.0458,-2.0417,-2.0424,-2.0415,-2.0388,-2.0391,-2.0402,-2.0393,-2.0395,-2.0382,-2.039,-2.039,-2.0363,-2.0357,-2.0331,-2.0343,-2.0394,-2.0314,-2.0313,-2.033,-2.0435,-2.0457,-2.0467,-2.0374,-2.0375,-2.0377,-2.0437,0,-2.0521,-2.0537,-2.0503,-2.0528,-2.0531,-2.0485,-2.0494,-2.0479,-2.046,-2.0459,-2.0437,-2.0438,-2.0403,-2.0398,-2.0408,-2.0386,-2.0415,-2.0381,-2.0382,-2.0383,-2.0389,-2.0477,-2.05,-2.0559,-2.0444,-2.0446,-2.0447,0,-2.0596,-2.0587,-2.0612,-2.0584,-2.0584,-2.0593,-2.0582,-2.0582,-2.0564,-2.0548,-2.054,-2.051,-2.0519,-2.0482,-2.0493,-2.0471,-2.0469,-2.0458,-2.046,-2.0459,-2.0419,-2.048,-2.0576,-2.0586,-2.0458,-2.0457,-2.0456,0,-2.0675,-2.0668,-2.0682,-2.0676,-2.0643,-2.065,-2.0637,-2.0617,-2.0613,-2.0604,-2.0601,-2.0593,-2.0589,-2.0583,-2.0551,-2.0527,-2.0567,-2.0527,-2.0555,-2.0556,-2.0566,-2.0566,-2.0665,-2.0564,-2.0564,-2.0564,-2.0564,0,-2.0749,-2.0766,-2.0717,-2.0726,-2.0744,-2.0704,-2.0723,-2.0705,-2.0687,-2.0692,-2.0651,-2.0657,-2.0614,-2.0614,-2.0589,-2.0603,-2.0601,-2.0589,-2.0583,-2.0594,-2.0595,-2.0593,-2.0588,-2.0566,-2.0565,-2.0565,-2.0565,0,-2.084,-2.0807,-2.082,-2.0787,-2.0779,-2.0794,-2.0766,-2.0773,-2.075,-2.0756,-2.0756,-2.072,-2.0718,-2.0685,-2.0677,-2.066,-2.0684,-2.067,-2.0691,-2.0686,-2.0716,-2.0714,-2.0817,-2.0829,-2.072,-2.0721,-2.0722,0,-2.089,-2.0902,-2.087,-2.087,-2.0859,-2.0859,-2.0855,-2.0817,-2.0815,-2.0794,-2.0804,-2.0799,-2.0793,-2.0792,-2.0766,-2.0759,-2.0745,-2.0781,-2.0743,-2.0754,-2.0746,-2.0746,-2.0747,-2.079,-2.0791,-2.0792,-2.0793,0,-2.0982,-2.0965,-2.0961,-2.0952,-2.0948,-2.0939,-2.0927,-2.0929,-2.0887,-2.0886,-2.0884,-2.0879,-2.087,-2.0866,-2.0854,-2.0841,-2.081,-2.0805,-2.0811,-2.0823,-2.0835,-2.0829,-2.0713,-2.0803,-2.0802,-2.0801,-2.0801,-2.08,-2.1054,-2.1063,-2.1042,-2.1039,-2.1026,-2.1015,-2.102,-2.0997,-2.0995,-2.0984,-2.0961,-2.0963,-2.0943,-2.0924,-2.0913,-2.0914,-2.0895,-2.0904,-2.0907,-2.091,-2.0916,-2.0834,-2.0912,-2.0911,-2.0911,-2.0911,-2.091,0,-2.1145,-2.1129,-2.1126,-2.1111,-2.1108,-2.1079,-2.1064,-2.1064,-2.1066,-2.105,-2.1045,-2.1042,-2.1037,-2.101,-2.1002,-2.1008,-2.0994,-2.1008,-2.1007,-2.1005,-2.0933,-2.0928,-2.1019,-2.1019,-2.1019,-2.1019,-2.1019,-2.1019,-2.1192,-2.1205,-2.1186,-2.1192,-2.1176,-2.1176,-2.117,-2.1161,-2.1148,-2.1147,-2.1143,-2.1124,-2.1104,-2.1095,-2.1089,-2.1081,-2.1081,-2.1099,-2.1087,-2.102,-2.101,-2.1,-2.0996,-2.1099,-2.1099,-2.1159,-2.1159,-2.116]}]]